Weather History for Troy, AL

Change the Weather History Date:

Sunday, July 28, 2013

  Actual Average Record
Temperature  
Mean Temperature 80 °F 81 °F  
Max Temperature 88 °F 92 °F 97 °F (2006)
Min Temperature 71 °F 70 °F 68 °F (2006)
Cooling Degree Days 15 16  
Month to date cooling degree days 397 441  
Year to date cooling degree days 1134 1116  
Since 1 June cooling degree days 842 829  
Growing Degree Days 29 (Base 50)    
Moisture  
Dew Point 71 °F    
Average Humidity 76    
Maximum Humidity 93    
Minimum Humidity 59    
Precipitation  
Precipitation 0.39 in 0.16 in 1.35 in (2002)
Month to date precipitation 11.78 5.14  
Year to date precipitation 40.89 32.80  
Sea Level Pressure  
Sea Level Pressure 29.97 in    
Wind  
Wind Speed 2 mph (SE)    
Max Wind Speed 13 mph    
Max Gust Speed 17 mph    
Visibility 4 miles    
Events Fog , Rain    
T = Trace of Precipitation, MM = Missing Value Source: NWS Daily Summary

Daily Weather History Graph

Daily Weather History Graph

Search for Another Location

Airport:

Trip Planner

Search our weather history database for the weather conditions in past years. The results will help you decide how hot, cold, wet, or windy it might be!

Date:

Astronomy

Jul. 28, 2013 Rise Set
Actual Time 5:57 AM CDT 7:43 PM CDT
Civil Twilight 5:30 AM CDT 8:10 PM CDT
Nautical Twilight 4:58 AM CDT 8:42 PM CDT
Astronomical Twilight 4:23 AM CDT 9:16 PM CDT
Moon 11:34 PM CDT (7/28) 12:10 PM CDT (7/28)
Length of Visible Light 14h 39m
Length of Day
13h 46m
Waning Gibbous, 60% of the Moon is Illuminated
Jul 28
Waning Gibbous
Jul 29
Last Quarter
Aug 6
New
Aug 14
First Quarter
Aug 20
Full

Hourly Weather History & Observations

Time (CDT) Temp. Heat Index Dew Point Humidity Pressure Visibility Wind Dir Wind Speed Gust Speed Precip Events Conditions
12:19 AM 71.6 °F - 68.0 °F 88% 29.96 in 3.0 mi Calm Calm - N/A   Scattered Clouds
12:22 AM 71.6 °F - 69.8 °F 94% 29.96 in 1.8 mi Calm Calm - N/A   Scattered Clouds
12:24 AM 71.6 °F - 69.8 °F 94% 29.96 in 1.2 mi Calm Calm - N/A   Mostly Cloudy
12:26 AM 71.6 °F - 69.8 °F 94% 29.96 in 0.8 mi Calm Calm - N/A   Mist
12:34 AM 71.6 °F - 68.0 °F 88% 29.96 in 0.2 mi Calm Calm - N/A Fog Fog
12:53 AM 72.0 °F - 70.0 °F 93% 29.94 in 0.2 mi Calm Calm - 0.01 in Fog Fog
1:53 AM 72.0 °F - 70.0 °F 93% 29.94 in 0.2 mi Calm Calm - N/A Fog Fog
2:26 AM 71.6 °F - 69.8 °F 94% 29.95 in 0.8 mi Calm Calm - N/A   Overcast
2:40 AM 71.6 °F - 69.8 °F 94% 29.95 in 0.5 mi Calm Calm - N/A Fog Fog
2:53 AM 72.0 °F - 70.0 °F 93% 29.94 in 0.5 mi Calm Calm - N/A Fog Fog
3:06 AM 71.6 °F - 69.8 °F 94% 29.95 in 0.8 mi Calm Calm - N/A   Overcast
3:10 AM 71.6 °F - 69.8 °F 94% 29.95 in 1.0 mi Calm Calm - N/A   Overcast
3:22 AM 71.6 °F - 69.8 °F 94% 29.96 in 0.5 mi Calm Calm - N/A Fog Fog
3:28 AM 71.6 °F - 69.8 °F 94% 29.95 in 1.0 mi Calm Calm - N/A   Overcast
3:35 AM 71.6 °F - 69.8 °F 94% 29.95 in 1.5 mi Calm Calm - N/A   Overcast
3:43 AM 71.6 °F - 69.8 °F 94% 29.95 in 2.0 mi Calm Calm - N/A   Overcast
3:53 AM 72.0 °F - 70.0 °F 93% 29.94 in 2.5 mi Calm Calm - N/A   Overcast
4:00 AM 73.4 °F - 69.8 °F 88% 29.95 in 3.0 mi Calm Calm - N/A   Overcast
4:53 AM 72.0 °F - 69.1 °F 91% 29.94 in 2.5 mi Calm Calm - N/A   Mostly Cloudy
5:41 AM 71.6 °F - 69.8 °F 94% 29.97 in 3.0 mi Calm Calm - N/A   Mostly Cloudy
5:53 AM 72.0 °F - 69.1 °F 91% 29.96 in 3.0 mi Calm Calm - N/A   Overcast
6:06 AM 71.6 °F - 69.8 °F 94% 29.98 in 2.0 mi Calm Calm - N/A   Overcast
6:53 AM 73.0 °F - 70.0 °F 90% 29.97 in 2.5 mi Calm Calm - N/A   Overcast
7:12 AM 73.4 °F - 69.8 °F 88% 29.99 in 3.0 mi Calm Calm - N/A   Overcast
7:24 AM 73.4 °F - 69.8 °F 88% 30.00 in 2.5 mi Calm Calm - N/A   Overcast
7:53 AM 73.0 °F - 70.0 °F 90% 29.99 in 2.5 mi Calm Calm - N/A   Overcast
8:02 AM 73.4 °F - 69.8 °F 88% 30.00 in 3.0 mi Calm Calm - N/A   Overcast
8:25 AM 75.2 °F - 71.6 °F 89% 30.00 in 3.0 mi SSE 3.5 mph - N/A   Overcast
8:53 AM 78.1 °F - 73.0 °F 84% 29.98 in 5.0 mi Calm Calm - N/A   Haze
9:53 AM 80.1 °F 83.6 °F 71.1 °F 74% 29.97 in 10.0 mi SSE 6.9 mph - N/A   Partly Cloudy
10:39 AM 82.4 °F 87.2 °F 71.6 °F 70% 30.00 in 10.0 mi Variable 4.6 mph - N/A   Mostly Cloudy
10:53 AM 82.9 °F 87.5 °F 71.1 °F 67% 29.99 in 10.0 mi Calm Calm - N/A   Mostly Cloudy
11:53 AM 86.0 °F 92.2 °F 72.0 °F 63% 29.98 in 10.0 mi East 6.9 mph - N/A   Scattered Clouds
12:53 PM 87.1 °F 93.6 °F 72.0 °F 61% 29.98 in 10.0 mi Variable 3.5 mph - N/A   Partly Cloudy
1:19 PM 80.6 °F 85.4 °F 73.4 °F 79% 29.99 in 5.0 mi South 10.4 mph - 0.02 in Rain Light Rain
1:23 PM 78.8 °F - 73.4 °F 83% 29.99 in 2.5 mi South 12.7 mph 17.3 mph 0.06 in Rain Heavy Rain
1:26 PM 78.8 °F - 73.4 °F 83% 29.99 in 1.0 mi SSW 10.4 mph - 0.15 in Rain Heavy Rain
1:33 PM 78.8 °F - 73.4 °F 83% 29.99 in 0.5 mi SSW 5.8 mph - 0.22 in Rain Heavy Rain
1:37 PM 78.8 °F - 73.4 °F 83% 29.99 in 1.0 mi SSW 6.9 mph - 0.23 in Rain Heavy Rain
1:39 PM 78.8 °F - 73.4 °F 83% 29.99 in 1.5 mi SSW 5.8 mph - 0.24 in Rain Rain
1:44 PM 78.8 °F - 73.4 °F 83% 29.99 in 2.0 mi SSW 5.8 mph - 0.25 in Rain Rain
1:53 PM 79.0 °F - 73.9 °F 84% 29.98 in 3.0 mi South 3.5 mph - 0.25 in Rain Light Rain
2:09 PM 80.6 °F 85.4 °F 73.4 °F 79% 29.99 in 2.0 mi East 3.5 mph - 0.04 in Rain Heavy Rain
2:21 PM 82.4 °F 89.5 °F 75.2 °F 79% 29.98 in 8.0 mi East 5.8 mph - 0.04 in Rain Light Rain
2:53 PM 86.0 °F 93.8 °F 73.9 °F 67% 29.95 in 10.0 mi East 4.6 mph - 0.04 in   Clear
3:53 PM 87.1 °F 94.5 °F 73.0 °F 63% 29.95 in 10.0 mi Calm Calm - N/A   Partly Cloudy
4:51 PM 78.8 °F - 73.4 °F 83% 29.97 in 2.5 mi NE 9.2 mph - 0.07 in Rain Light Rain
4:53 PM 79.0 °F - 75.0 °F 88% 29.96 in 3.0 mi NE 6.9 mph - 0.07 in Rain Light Rain
5:53 PM 80.1 °F 84.2 °F 73.0 °F 79% 29.96 in 10.0 mi NNE 3.5 mph - 0.03 in   Overcast
6:53 PM 79.0 °F - 75.0 °F 88% 29.98 in 10.0 mi Calm Calm - N/A   Partly Cloudy
7:53 PM 78.1 °F - 73.9 °F 87% 29.98 in 10.0 mi NE 4.6 mph - N/A   Partly Cloudy
8:53 PM 75.9 °F - 72.0 °F 87% 30.01 in 10.0 mi Calm Calm - N/A   Partly Cloudy
9:06 PM 75.2 °F - 71.6 °F 89% 30.03 in 10.0 mi Calm Calm - N/A   Scattered Clouds
9:53 PM 75.0 °F - 72.0 °F 90% 30.03 in 10.0 mi Calm Calm - N/A   Clear
10:53 PM 75.0 °F - 71.1 °F 87% 30.03 in 10.0 mi Calm Calm - N/A   Clear
11:53 PM 73.9 °F - 71.1 °F 91% 30.03 in 10.0 mi Calm Calm - N/A   Clear